Location: Manchester NH
(43.0000°N, 71.5000°W)
Time: 22:36:37
(UTC-05:00)

Tiangong 2 - Visible Passes

Search period start: 15 December 2017 00:00
Search period end: 25 December 2017 00:00
Orbit: 386 x 390 km, 42.8° (Epoch: 15 December)

Date Brightness Start Highest point End Pass type
(mag) Time Alt. Az. Time Alt. Az. Time Alt. Az.
21 Dec 3.1 17:59:39 10° SSW 18:01:35 18° SSE 18:01:35 18° SSE visible
22 Dec 3.6 17:02:37 10° SSE 17:03:41 11° SE 17:04:46 10° SE visible
22 Dec 3.5 18:36:56 10° SW 18:38:15 21° SW 18:38:15 21° SW visible
23 Dec 2.4 17:38:46 10° SW 17:41:36 30° SSE 17:42:34 24° ESE visible
24 Dec 1.9 18:16:34 10° WSW 18:19:07 50° SW 18:19:07 50° SW visible
